Wind_Speed
101 111 118 119 119 117 122 119 118 117 117 120 112 105 104 110 109 106 100 97 94 88 90 92 94 91 88 85 85 84 81 74 69 63 61 58 57 61 66 75 78 75 70 67
99 101 113 121 123 121 121 121 116 121 120 123 117 108 105 104 100 100 98 98 95 93 94 92 88 84 79 78 76 71 70 63 57 54 52 54 59 66 72 75 74 70 66 68
101 106 109 112 115 123 125 122 120 120 124 123 118 109 109 106 103 101 97 94 92 88 88 84 82 77 72 69 67 64 61 54 51 52 53 58 63 68 72 73 68 65 65 66
92 103 111 115 114 115 116 121 126 123 123 115 119 111 111 104 102 99 95 93 92 91 87 84 82 77 71 67 66 62 56 53 54 56 59 63 68 71 75 70 64 63 64 61
88 94 103 107 111 117 118 118 117 121 124 118 113 113 105 105 101 99 99 97 96 94 88 83 81 78 72 67 67 61 57 57 57 62 63 69 71 75 78 65 62 63 59 53
81 89 93 99 104 108 110 115 118 116 114 117 111 112 97 105 106 107 107 106 105 99 92 85 82 79 78 79 77 70 64 62 66 70 76 75 78 69 67 63 60 56 50 40
70 75 81 84 91 98 99 103 107 110 110 104 100 108 97 99 102 105 100 101 103 101 97 89 88 81 82 79 77 73 71 71 72 74 72 72 65 63 61 56 54 48 38 35
64 67 71 70 72 79 87 93 92 95 97 99 102 105 87 92 100 99 98 97 92 94 92 89 90 86 81 81 77 74 74 74 69 68 65 60 56 55 53 48 45 39 36 36
53 55 57 57 62 67 72 73 83 89 88 83 91 96 95 93 92 95 93 90 86 82 75 82 81 78 75 74 74 72 68 65 61 57 55 53 50 50 43 39 36 36 37 37
40 43 43 49 51 57 61 64 66 73 77 70 81 81 85 91 95 93 86 81 76 73 70 71 71 68 66 65 64 59 57 56 52 49 49 46 43 37 34 33 33 35 34 33
32 34 36 41 40 45 51 55 59 63 63 64 76 74 88 89 89 83 82 76 67 63 59 60 60 60 57 56 53 51 49 44 44 44 41 36 30 29 29 32 34 33 32 34
26 28 29 34 33 38 42 48 52 55 58 63 72 79 79 83 84 78 76 68 62 53 48 48 48 49 47 43 44 41 39 40 37 35 27 25 23 26 30 32 33 30 32 34
22 23 24 29 29 35 38 43 47 49 55 60 68 70 74 80 78 71 62 63 61 51 45 44 42 39 35 35 35 35 35 31 28 23 22 20 21 24 29 30 29 31 33 28
17 18 21 26 27 31 36 40 43 46 50 59 68 76 79 74 70 63 59 59 54 47 40 36 32 31 32 32 34 31 25 22 22 20 23 26 22 27 28 28 30 31 26 23
14 16 19 22 23 28 34 39 42 49 53 58 70 72 73 63 65 61 58 55 51 44 37 29 29 30 31 33 30 23 18 16 17 20 24 25 25 29 27 28 30 23 21 21
10 12 14 17 22 28 32 36 41 49 54 60 63 65 58 58 60 61 56 53 48 41 34 32 32 29 31 25 23 19 16 14 16 19 21 22 27 27 27 29 22 19 16 13
8 9 10 13 18 22 25 30 41 47 56 64 67 69 63 63 63 60 56 53 47 40 35 33 32 30 26 24 21 19 16 14 13 13 17 22 24 24 28 23 20 14 11 11
3 5 8 12 15 19 27 35 41 50 62 66 65 58 62 64 64 59 57 52 46 39 35 33 33 30 28 24 22 16 15 13 12 14 17 21 23 26 25 20 15 10 10 9
1 4 7 12 17 24 30 37 44 54 62 66 62 65 66 67 63 63 59 54 47 40 35 36 34 31 28 24 19 15 14 13 13 16 17 19 23 25 20 17 12 9 9 13
2 5 8 12 20 26 30 39 49 58 63 62 63 65 68 68 68 65 60 55 47 40 39 38 34 31 27 22 17 15 12 9 14 14 14 19 23 20 17 12 10 9 9 20
4 8 12 16 22 27 32 40 51 61 64 66 66 68 66 70 67 65 63 56 49 42 41 39 34 31 25 20 18 15 4 9 11 10 16 19 18 16 11 12 11 10 12 23
2 8 14 17 23 30 36 46 57 61 66 68 69 73 78 69 71 68 65 57 50 46 43 38 35 30 24 21 20 11 6 8 8 11 16 16 14 10 10 11 9 8 10 23
2 6 11 18 24 29 39 50 55 61 68 68 71 74 71 70 70 69 63 56 56 50 44 37 34 30 25 20 18 9 9 9 8 12 13 13 9 8 10 10 9 9 10 22
4 8 12 18 24 32 40 50 59 67 71 68 72 71 71 72 71 68 64 57 58 51 44 38 35 31 23 21 17 9 10 8 8 9 13 9 7 10 10 10 11 9 13 25
4 9 15 20 26 33 42 53 62 68 70 70 67 70 70 72 71 67 63 59 56 46 40 37 34 30 25 21 18 8 11 7 7 8 12 6 8 12 13 12 15 13 14 23
3 7 13 21 31 42 55 66 68 66 65 67 69 76 69 72 72 68 63 60 52 42 37 37 35 32 25 18 20 12 12 8 8 8 9 4 7 11 12 12 16 18 17 24
Wind_Direction
245 246 244 244 244 244 242 242 241 241 241 242 241 244 246 248 249 250 250 253 253 255 259 262 265 267 269 270 273 276 281 284 286 289 288 288 290 294 298 302 307 305 305 306
249 248 248 246 245 245 245 244 241 239 242 243 241 239 239 245 250 253 253 253 257 258 259 262 263 265 267 270 274 276 279 283 285 285 283 287 293 296 300 305 303 303 303 306
253 252 250 249 248 247 245 246 245 242 241 242 243 241 240 243 245 249 253 255 256 257 257 258 262 263 267 273 275 277 277 279 282 282 284 289 292 298 304 304 301 301 304 303
254 252 252 251 250 249 247 247 246 245 244 242 243 241 240 242 242 247 250 254 256 256 254 257 261 264 269 273 276 276 275 275 279 284 284 287 292 300 303 300 299 301 301 301
254 252 252 251 250 250 249 247 245 245 246 244 243 244 241 242 243 244 247 249 250 251 254 259 261 266 268 270 277 273 274 276 280 282 284 288 298 297 300 296 298 298 299 299
256 256 253 251 251 250 249 248 247 245 244 244 243 244 241 243 243 246 247 246 248 252 255 259 263 268 269 272 273 271 273 278 280 281 285 290 294 295 294 292 295 297 295 299
260 258 255 251 250 251 249 246 246 246 244 244 243 245 239 240 242 244 246 246 247 249 253 257 260 263 266 268 269 269 273 277 282 281 286 287 288 290 289 291 294 291 295 295
265 259 255 252 249 247 246 246 246 245 243 240 238 240 240 239 239 240 242 244 246 248 251 254 256 261 262 262 266 270 273 277 277 278 282 283 284 285 287 290 287 290 291 293
262 259 256 252 249 246 242 241 240 241 241 238 234 234 233 235 238 240 239 242 244 246 249 251 253 254 257 261 264 267 270 272 275 276 277 278 280 281 283 284 286 290 291 292
264 261 256 252 247 244 241 237 234 236 238 234 231 230 229 230 231 234 238 240 243 245 245 247 250 252 255 258 260 265 267 268 271 272 272 273 275 277 279 282 286 289 290 296
267 260 257 252 242 237 235 232 229 229 228 225 226 224 224 226 228 231 234 237 240 243 244 244 245 248 250 254 259 261 263 264 265 265 264 269 270 275 278 283 286 290 296 297
267 262 255 249 238 232 226 226 224 221 219 217 218 217 217 221 223 224 227 231 234 235 240 240 239 241 246 251 253 254 256 256 257 259 263 265 269 275 279 283 287 293 295 295
275 262 252 243 232 228 222 219 217 215 213 210 206 210 214 217 218 219 220 224 226 228 232 231 232 236 238 240 243 245 247 247 251 255 257 254 269 278 284 287 292 293 291 289
284 266 244 236 230 224 218 214 210 208 207 204 200 203 206 209 212 211 210 215 217 220 224 221 223 225 229 234 234 233 237 243 251 255 248 249 271 283 293 296 298 292 287 286
285 265 243 228 225 215 214 209 203 201 198 196 196 197 204 200 201 199 202 204 207 211 214 204 213 218 219 221 223 223 229 242 254 253 250 255 272 287 297 299 297 287 282 280
292 260 236 223 213 207 207 204 195 195 188 187 190 193 195 193 189 192 194 195 198 202 199 197 203 208 212 213 218 221 234 242 248 252 255 262 278 292 300 301 293 291 277 254
269 228 206 203 203 200 198 193 189 189 183 182 183 188 184 183 181 186 186 187 190 193 193 190 197 196 199 205 215 225 233 232 244 258 268 274 286 298 303 298 297 279 240 222
260 208 195 188 188 183 181 178 183 184 182 178 181 176 177 174 178 179 183 180 185 187 186 187 189 191 195 203 216 227 228 226 237 268 270 280 295 301 300 292 285 252 213 207
132 180 182 170 164 173 178 175 175 177 177 177 172 173 168 170 174 177 179 176 181 181 178 185 182 190 198 205 214 223 212 216 263 278 278 289 295 297 291 288 261 218 202 177
107 151 157 158 160 170 175 175 173 175 175 171 166 167 163 171 173 175 172 174 175 173 181 183 182 191 199 206 200 203 202 240 264 272 291 296 296 292 281 248 222 200 188 166
146 142 149 155 160 167 170 171 169 173 170 161 163 162 167 173 170 171 170 173 168 174 181 184 184 188 196 190 195 180 207 247 257 288 297 298 296 289 247 215 197 180 168 160
153 144 148 157 162 167 167 169 173 172 162 161 163 163 173 167 170 169 171 169 165 175 184 183 182 188 179 186 181 157 237 232 286 299 297 302 296 267 212 192 187 167 157 168
138 145 145 158 162 167 171 171 169 166 159 162 164 167 167 167 170 168 170 165 170 176 184 179 183 178 175 177 169 179 215 250 279 292 295 301 287 230 194 180 179 161 169 172
151 151 150 158 164 167 173 170 167 160 161 164 165 163 169 166 169 170 169 166 173 177 177 174 180 179 177 177 174 179 214 233 270 297 293 287 263 221 188 162 156 162 177 172
180 167 162 157 167 164 163 163 165 163 163 166 161 166 171 164 167 172 167 172 173 177 178 177 184 185 183 183 184 187 219 230 256 292 290 284 263 221 186 166 164 172 169 181
177 166 172 168 170 164 160 161 164 165 163 164 164 171 167 164 169 172 170 174 171 172 183 183 188 188 172 182 190 206 221 222 247 275 279 298 271 217 182 180 191 187 176 176
Height
10571 10575 10575 10575 10583 10601 10602 10616 10631 10643 10644 10644 10668 10698 10702 10701 10707 10721 10733 10738 10746 10759 10761 10761 10763 10767 10772 10780 10780 10783 10783 10783 10783 10782 10778 10773 10769 10766 10762 10756 10750 10742 10735 10728
10550 10553 10543 10549 10557 10567 10575 10587 10609 10612 10616 10621 10645 10677 10680 10683 10700 10705 10717 10726 10733 10741 10743 10745 10749 10756 10759 10766 10770 10770 10772 10772 10770 10768 10765 10762 10759 10755 10750 10746 10738 10730 10724 10718
10524 10517 10519 10521 10528 10539 10548 10559 10574 10587 10587 10601 10622 10649 10664 10674 10688 10694 10702 10709 10717 10724 10726 10729 10735 10741 10748 10754 10757 10760 10760 10760 10757 10756 10755 10751 10748 10745 10740 10733 10725 10719 10714 10707
10492 10482 10486 10491 10502 10507 10518 10530 10539 10550 10559 10595 10594 10623 10634 10656 10672 10678 10688 10693 10701 10703 10709 10717 10724 10730 10739 10745 10748 10747 10747 10746 10746 10745 10744 10740 10738 10735 10728 10722 10714 10710 10704 10697
10457 10457 10456 10462 10468 10471 10485 10494 10507 10517 10537 10555 10579 10590 10631 10636 10656 10668 10671 10671 10676 10681 10694 10706 10713 10719 10727 10732 10735 10734 10734 10734 10734 10732 10731 10729 10726 10723 10717 10710 10705 10701 10694 10686
10429 10423 10426 10429 10433 10441 10454 10464 10474 10490 10505 10524 10564 10563 10612 10617 10636 10637 10642 10651 10655 10670 10684 10696 10703 10708 10712 10717 10720 10720 10720 10723 10720 10719 10718 10717 10715 10711 10705 10700 10695 10691 10683 10678
10399 10396 10394 10400 10405 10410 10423 10432 10443 10458 10480 10508 10540 10535 10587 10597 10605 10609 10623 10631 10641 10660 10674 10689 10691 10695 10696 10701 10704 10706 10709 10709 10709 10707 10707 10706 10703 10698 10693 10688 10684 10680 10675 10671
10370 10367 10365 10375 10380 10386 10396 10405 10420 10434 10454 10480 10506 10508 10565 10571 10577 10589 10599 10610 10629 10644 10663 10675 10674 10681 10683 10686 10691 10694 10695 10697 10696 10695 10695 10694 10691 10687 10683 10679 10674 10670 10667 10663
10344 10344 10346 10354 10356 10362 10370 10386 10396 10411 10424 10447 10478 10495 10522 10546 10557 10562 10580 10595 10615 10632 10654 10654 10659 10664 10669 10675 10678 10680 10683 10684 10684 10683 10683 10681 10679 10676 10674 10669 10665 10662 10659 10655
10327 10327 10331 10332 10338 10344 10352 10361 10375 10389 10403 10432 10453 10479 10509 10518 10530 10543 10565 10585 10603 10622 10634 10637 10644 10649 10657 10661 10663 10667 10670 10672 10672 10671 10671 10670 10669 10667 10663 10661 10659 10655 10650 10645
10314 10313 10315 10316 10323 10328 10336 10345 10357 10370 10389 10412 10431 10464 10471 10493 10507 10539 10556 10573 10593 10607 10617 10622 10629 10637 10643 10647 10652 10656 10658 10660 10660 10661 10660 10661 10659 10657 10656 10654 10652 10647 10642 10638
10302 10301 10303 10304 10310 10315 10323 10332 10344 10357 10375 10393 10412 10430 10455 10477 10495 10521 10539 10564 10579 10596 10603 10608 10617 10623 10631 10638 10642 10645 10648 10650 10650 10651 10652 10651 10651 10651 10650 10647 10643 10638 10635 10631
10294 10293 10293 10296 10300 10304 10312 10322 10331 10346 10360 10378 10395 10424 10443 10459 10486 10511 10535 10553 10568 10583 10590 10598 10606 10615 10623 10628 10632 10636 10638 10641 10643 10644 10644 10645 10645 10644 10642 10638 10635 10631 10628 10624
10287 10286 10286 10288 10292 10297 10303 10311 10321 10334 10349 10363 10382 10402 10420 10447 10476 10504 10525 10542 10559 10572 10581 10591 10599 10607 10614 10620 10625 10628 10632 10635 10637 10637 10638 10638 10638 10636 10633 10630 10627 10623 10620 10617
10280 10279 10280 10282 10287 10292 10297 10303 10313 10322 10336 10354 10369 10391 10414 10444 10467 10494 10515 10533 10550 10562 10574 10584 10591 10601 10608 10613 10618 10622 10626 10629 10631 10631 10632 10632 10631 10629 10626 10623 10619 10615 10613 10611
10277 10276 10278 10280 10283 10286 10290 10300 10310 10320 10332 10350 10374 10398 10421 10444 10468 10487 10507 10527 10543 10556 10569 10579 10587 10595 10602 10608 10614 10619 10622 10623 10624 10625 10627 10627 10625 10623 10620 10616 10612 10609 10607 10607
10274 10272 10274 10277 10281 10286 10293 10302 10310 10323 10335 10350 10370 10387 10413 10437 10462 10482 10502 10520 10537 10552 10564 10575 10582 10589 10597 10604 10610 10614 10617 10617 10619 10621 10622 10621 10618 10617 10614 10610 10607 10605 10604 10604
10275 10274 10274 10277 10280 10286 10291 10297 10310 10323 10332 10349 10370 10397 10414 10439 10459 10480 10499 10517 10534 10549 10561 10570 10578 10586 10593 10600 10605 10610 10611 10612 10615 10616 10615 10614 10612 10610 10608 10605 10602 10602 10602 10602
10277 10277 10277 10278 10282 10286 10291 10299 10309 10322 10336 10351 10372 10390 10414 10436 10458 10476 10495 10514 10532 10547 10556 10566 10575 10583 10590 10596 10601 10605 10607 10610 10611 10610 10609 10609 10607 10605 10603 10600 10599 10600 10600 10600
10281 10279 10280 10282 10284 10288 10294 10301 10310 10323 10338 10358 10378 10396 10417 10435 10453 10474 10496 10514 10531 10543 10553 10563 10572 10579 10586 10592 10597 10600 10604 10606 10606 10605 10605 10604 10602 10600 10598 10596 10597 10598 10598 10599
10283 10282 10283 10284 10287 10292 10298 10307 10317 10326 10344 10365 10380 10400 10424 10434 10457 10478 10495 10511 10529 10542 10553 10561 10568 10575 10582 10588 10593 10597 10600 10601 10602 10602 10601 10600 10597 10596 10594 10595 10596 10596 10596 10599
10288 10287 10287 10288 10291 10294 10301 10311 10317 10332 10352 10369 10383 10398 10410 10437 10458 10477 10494 10511 10528 10542 10551 10559 10566 10573 10580 10586 10590 10594 10596 10598 10599 10598 10598 10596 10595 10593 10592 10594 10595 10596 10596 10599
10293 10292 10292 10293 10296 10301 10307 10313 10329 10343 10361 10374 10387 10401 10421 10442 10462 10479 10495 10512 10524 10536 10544 10556 10564 10571 10578 10584 10588 10592 10594 10596 10597 10597 10596 10594 10592 10591 10592 10593 10593 10595 10597 10600
10296 10295 10295 10297 10300 10304 10311 10322 10332 10348 10362 10378 10393 10411 10426 10443 10463 10481 10496 10509 10522 10532 10544 10553 10562 10569 10576 10581 10586 10590 10591 10593 10594 10595 10594 10592 10591 10590 10591 10591 10593 10595 10597 10600
10300 10298 10298 10301 10305 10310 10318 10330 10341 10350 10367 10381 10401 10417 10431 10448 10468 10483 10496 10509 10521 10533 10544 10554 10561 10568 10575 10579 10584 10587 10588 10590 10592 10592 10592 10590 10589 10588 10589 10590 10592 10594 10596 10599
10303 10304 10304 10305 10308 10313 10321 10332 10345 10358 10377 10391 10405 10420 10437 10454 10470 10484 10496 10508 10520 10532 10542 10552 10560 10567 10573 10577 10582 10585 10586 10588 10590 10591 10590 10588 10587 10587 10587 10587 10590 10592 10595 10599